Weather History for KJBR - June, 2012

Change the Weather History Date:

Monday, June 25, 2012

  Actual Average Record
Temperature  
Mean Temperature 85 °F 80 °F  
Max Temperature 102 °F 91 °F 108 °F (1901)
Min Temperature 67 °F 69 °F 52 °F (1974)
Degree Days  
Heating Degree Days 0 0  
Month to date heating degree days 0 0  
Since 1 June heating degree days 0 0  
Since 1 July heating degree days 2688 3652  
Cooling Degree Days 20 15  
Month to date cooling degree days 306 307  
Year to date cooling degree days 810 520  
Since 1 June cooling degree days 306 307  
Growing Degree Days 34 (Base 50)    
Moisture  
Dew Point 63 °F    
Average Humidity 49    
Maximum Humidity 70    
Minimum Humidity 27    
Precipitation  
Precipitation 0.00 in 0.14 in 1.30 in (1907)
Month to date precipitation 2.19 2.92  
Year to date precipitation 14.74 24.20  
Snow  
Snow 0.00 in 0.00 in - ()
Month to date snowfall 0.0 0.0  
Since 1 June snowfall 0.0 0.0  
Since 1 July snowfall 5.5 4.8  
Snow Depth 0.00 in    
Sea Level Pressure  
Sea Level Pressure 29.82 in    
Wind  
Wind Speed 5 mph (NE)    
Max Wind Speed 14 mph    
Max Gust Speed 18 mph    
Visibility 10 miles    
Events      
T = Trace of Precipitation, MM = Missing Value Source: NWS Daily Summary

Daily Weather History Graph

Daily Weather History Graph

Search for Another Location

Airport or City:

Trip Planner

Search our weather history database for the weather conditions in past years. The results will help you decide how hot, cold, wet, or windy it might be!

Date:

Astronomy

Jun. 25, 2012 Rise Set
Actual Time 5:47 AM CDT 8:22 PM CDT
Civil Twilight 5:17 AM CDT 8:52 PM CDT
Nautical Twilight 4:40 AM CDT 9:30 PM CDT
Astronomical Twilight 3:58 AM CDT 10:11 PM CDT
Moon 11:45 AM CDT (6/25) No Moon Set
Length of Visible Light 15h 35m
Length of Day
14h 34m
Waxing Crescent, 34% of the Moon is Illuminated
Jun 25
Waxing Crescent
Jun 26
First Quarter
Jul 3
Full
Jul 10
Last Quarter
Jul 18
New

Hourly Weather History & Observations

Time (CDT) Temp. Heat Index Dew Point Humidity Pressure Visibility Wind Dir Wind Speed Gust Speed Precip Events Conditions
12:53 AM 72.0 °F - 60.1 °F 66% 29.87 in 10.0 mi Calm Calm - N/A   Clear
1:53 AM 72.0 °F - 59.0 °F 64% 29.85 in 10.0 mi Calm Calm - N/A   Clear
2:53 AM 70.0 °F - 59.0 °F 68% 29.84 in 10.0 mi Calm Calm - N/A   Clear
3:53 AM 72.0 °F - 57.9 °F 61% 29.85 in 10.0 mi Calm Calm - N/A   Clear
4:53 AM 71.1 °F - 57.9 °F 63% 29.86 in 10.0 mi Calm Calm - N/A   Clear
5:53 AM 69.1 °F - 59.0 °F 70% 29.88 in 10.0 mi Calm Calm - N/A   Clear
6:53 AM 78.1 °F - 59.0 °F 52% 29.89 in 10.0 mi NNW 8.1 mph - N/A   Clear
7:53 AM 82.9 °F 83.7 °F 62.1 °F 49% 29.89 in 10.0 mi NNW 4.6 mph - N/A   Clear
8:53 AM 90.0 °F 90.3 °F 62.1 °F 39% 29.89 in 10.0 mi Calm Calm - N/A   Clear
9:53 AM 91.9 °F 90.8 °F 57.9 °F 32% 29.87 in 10.0 mi NNW 4.6 mph - N/A   Clear
10:53 AM 95.0 °F 94.4 °F 59.0 °F 30% 29.86 in 10.0 mi West 5.8 mph - N/A   Clear
11:53 AM 96.1 °F 95.6 °F 59.0 °F 29% 29.85 in 10.0 mi Variable 4.6 mph - N/A   Partly Cloudy
12:53 PM 100.0 °F 100.7 °F 60.1 °F 27% 29.82 in 10.0 mi Calm Calm - N/A   Partly Cloudy
1:53 PM 100.0 °F 100.7 °F 60.1 °F 27% 29.80 in 10.0 mi Variable 6.9 mph - N/A   Scattered Clouds
2:53 PM 99.0 °F 102.9 °F 66.0 °F 34% 29.78 in 10.0 mi SE 6.9 mph - N/A   Scattered Clouds
3:53 PM 99.0 °F 102.9 °F 66.0 °F 34% 29.77 in 10.0 mi ESE 6.9 mph - N/A   Partly Cloudy
4:53 PM 99.0 °F 102.3 °F 64.9 °F 33% 29.76 in 10.0 mi East 9.2 mph - N/A   Partly Cloudy
5:53 PM 97.0 °F 101.0 °F 66.9 °F 37% 29.75 in 10.0 mi ENE 8.1 mph - N/A   Partly Cloudy
6:53 PM 95.0 °F 101.3 °F 70.0 °F 44% 29.76 in 10.0 mi East 4.6 mph - N/A   Clear
7:53 PM 91.9 °F 97.4 °F 70.0 °F 48% 29.76 in 10.0 mi ENE 6.9 mph - N/A   Clear
8:53 PM 89.1 °F 92.1 °F 66.9 °F 48% 29.77 in 10.0 mi NE 6.9 mph - N/A   Clear
9:53 PM 86.0 °F 88.2 °F 66.0 °F 51% 29.79 in 10.0 mi NE 6.9 mph - N/A   Clear
10:53 PM 87.1 °F 89.2 °F 66.0 °F 49% 29.80 in 10.0 mi NE 11.5 mph - N/A   Clear
11:53 PM 86.0 °F 88.2 °F 66.0 °F 51% 29.82 in 10.0 mi NE 10.4 mph - N/A   Clear